Flag for Germany Weather past 2 weeks in Monheim am Rhein, North Rhine-Westphalia, Germany

Now
50 °F

Clear.


Feels Like: 50 °F
Forecast: 51 / 62 °F
Wind: 1 mph from East

Location: Duesseldorf

Current Time: May 25, 2015 at 1:38:53 AM

Latest Report: May 25, 2015 at 1:20 AM


Visibility: 10 mi

Pressure: 30.04 "Hg

Humidity: 76%

Dew point: 43 °F

Location of Monheim am RheinLocation

Historic Weather in Monheim am Rhein — Graph

°F

Monheim am Rhein temperature yesterday

Maximum temperature yesterday: 68 °F (at 4:20 PM)
Minimum temperature yesterday: 46 °F (at 2:50 AM)
Average temperature yesterday: 58 °F

Past Weeks' High & Low Weather Summary

 TemperatureHumidityPressure
High79 °F (May 11, 4:20 PM)100% (May 16, 3:50 PM)30.36 "Hg (May 16, 3:50 PM)
Low37 °F (May 21, 4:20 AM)32% (May 13, 6:20 PM)29.65 "Hg (May 18, 6:20 PM)
Average57 °F64%30.08 "Hg
* Reported May 10 12:20 AM — May 25 12:20 AM, Monheim am Rhein, Weather by CustomWeather, © 2015

Note: Actual official high and low records may vary slightly from our data, if they occured in-between our weather recording intervals... More about our weather records

Advertising

Monheim am Rhein weather history for previous 24 hours

 ConditionsComfort  
Time TempWeatherWind HumidityBarometerVisibility
12:20 AM
Mon, May 25
54 °FClear.1 mph67%30.04 "Hg10 mi
11:20 PM
Sun, May 24
57 °FClear.7 mph59%30.04 "Hg10 mi
10:50 PM54 °FClear.1 mph72%30.04 "Hg10 mi
10:20 PM55 °FSunny.1 mph67%30.04 "Hg10 mi
9:50 PM57 °FSunny.1 mph63%30.04 "Hg10 mi
9:20 PM61 °FSunny.1 mph55%30.04 "Hg10 mi
8:50 PM64 °FSunny.3 mph46%30.04 "Hg10 mi
8:20 PM66 °FSunny.6 mph40%30.04 "Hg10 mi
7:50 PM68 °FSunny.7 mph38%30.04 "Hg10 mi
7:20 PM68 °FSunny.7 mph38%30.04 "Hg10 mi
6:50 PM68 °FPassing clouds.6 mph38%30.04 "HgN/A
6:20 PM68 °FSunny.5 mph40%30.04 "Hg10 mi
5:50 PM68 °FSunny.7 mph40%30.04 "Hg10 mi
5:20 PM68 °FSunny.3 mph40%30.07 "Hg10 mi
4:50 PM68 °FSunny.3 mph40%30.07 "Hg10 mi
4:20 PM68 °FPassing clouds.5 mph40%30.07 "HgN/A
3:50 PM66 °FPassing clouds.6 mph46%30.07 "HgN/A
3:20 PM66 °FPartly sunny.5 mph46%30.09 "HgN/A
2:50 PM66 °FPartly sunny.3 mph46%30.09 "HgN/A
2:20 PM64 °FPartly sunny.7 mph49%30.09 "HgN/A
1:50 PM64 °FPartly sunny.6 mph49%30.09 "HgN/A
1:20 PM64 °FBroken clouds.6 mph49%30.09 "HgN/A
12:50 PM63 °FBroken clouds.5 mph56%30.12 "HgN/A
12:20 PM63 °FBroken clouds.1 mph56%30.12 "HgN/A
11:50 AM61 °FBroken clouds.3 mph55%30.12 "HgN/A
11:20 AM61 °FPartly sunny.1 mph63%30.12 "HgN/A
10:50 AM59 °FPartly sunny.1 mph63%30.12 "HgN/A
10:20 AM57 °FPartly sunny.2 mph67%30.12 "HgN/A
9:50 AM55 °FPartly sunny.2 mph72%30.12 "HgN/A
9:20 AM54 °FPartly sunny.2 mph77%30.12 "HgN/A
8:50 AM54 °FPartly sunny.2 mph72%30.12 "HgN/A
8:20 AM52 °FPartly sunny.3 mph77%30.12 "HgN/A
7:50 AM52 °FPartly sunny.5 mph77%30.12 "HgN/A
7:20 AM50 °FPartly sunny.5 mph76%30.12 "HgN/A
6:50 AM50 °FPartly sunny.6 mph76%30.12 "HgN/A
6:20 AM50 °FPassing clouds.6 mph76%30.12 "HgN/A
5:50 AM50 °FPassing clouds.3 mph76%30.12 "HgN/A
5:20 AM48 °FPassing clouds.5 mph87%30.15 "HgN/A
4:50 AM48 °FPassing clouds.5 mph87%30.12 "HgN/A
4:20 AM48 °FPassing clouds.5 mph82%30.12 "HgN/A
3:50 AM46 °FPassing clouds.5 mph87%30.15 "HgN/A
3:20 AM46 °FPartly cloudy.6 mph87%30.15 "HgN/A
2:50 AM46 °FPartly cloudy.6 mph87%30.15 "HgN/A
2:20 AM48 °FPassing clouds.6 mph82%30.15 "HgN/A
1:50 AM50 °FPassing clouds.7 mph76%30.15 "HgN/A
1:20 AM50 °FPassing clouds.6 mph82%30.15 "HgN/A
Weather by CustomWeather, © 2015

See weather overviewHow to use our weather pages